Regional Weather Roundup
Issued by NWS

Home | Current Version | Previous Version | Text Only | Print | Product List | Glossary Off
Versions: 1 2 3 4 5 6 7 8 9 10 11 12 13 14 15 16 17 18 19 20 21 22 23 24 25 26 27 28 29 30 31 32 33 34 35 36 37 38 39 40 41 42 43 44 45 46 47 48 49 50

000
ASUS43 KDTX 051301
RWRMI
MICHIGAN HOURLY REGIONAL WEATHER ROUNDUP
NATIONAL WEATHER SERVICE DETROIT/PONTIAC MI
900 AM EDT SUN JUL 05 2015

NOTE: "FAIR" INDICATES FEW OR NO CLOUDS BELOW 12,000 FEET WITH NO
SIGNIFICANT WEATHER AND/OR OBSTRUCTION TO VISIBILITY.

MIZ047>049-052>055-059>063-066>070-074>076-081>083-051400-
SOUTHEAST LOWER MICHIGAN

CITY           SKY/WX    TMP DP  RH WIND       PRES   REMARKS
ADRIAN         SUNNY     66  61  84 CALM      30.13R
ALMA           SUNNY     66  63  91 CALM      30.13R FOG
ANN ARBOR      SUNNY     67  61  81 CALM      30.12S
BAD AXE        SUNNY     67  64  88 W3        30.11R FOG
CARO           SUNNY     66  62  86 SW3       30.11R
DETROIT CITY   SUNNY     70  56  61 SW3       30.12S
DETROIT        SUNNY     69  59  70 S5        30.13R
FLINT          SUNNY     69  61  75 W3        30.12R HAZE
GROSSE ILE     SUNNY     70  61  73 CALM      30.11S
HILLSDALE      SUNNY     69  62  76 CALM      30.13R
HOWELL         SUNNY     66  62  86 CALM      30.13R

CITY           SKY/WX    TMP DP  RH WIND       PRES   REMARKS
JACKSON        SUNNY     67  61  81 CALM      30.13R
LAMBERTVILLE   SUNNY     68  59  73 CALM      30.12F
LANSING        SUNNY     67  61  81 S3        30.13R
LAPEER         FAIR      68  60  76 SW3       30.12R
MASON          SUNNY     63  61  94 CALM      30.12R
MONROE         SUNNY     67  58  70 CALM      30.12S
MT. CLEMENS    SUNNY     71  59  65 CALM      30.10S
PONTIAC        MOSUNNY   67  61  81 CALM      30.12R HAZE
PORT HOPE        N/A     69  63  81 VRB3      30.08R
PORT HURON     SUNNY     66  63  88 SW3       30.12R HAZE
TRI CITIES     SUNNY     67  60  78 W6        30.12R
MIDLAND        FAIR      65  60  84 CALM      30.11R
TROY           SUNNY     68  59  73 CALM      30.13S HAZE
SAGINAW HB     SUNNY     66  66 100 SW5       30.11R
$$
MIZ043>046-050>051-056>058-064>065-071>073-077>080-051400-
SOUTHWEST LOWER MICHIGAN

CITY           SKY/WX    TMP DP  RH WIND       PRES   REMARKS
BATTLE CREEK   SUNNY     69  61  75 S3        30.13R
BENTON HARBOR  SUNNY     69  61  75 CALM      30.10R HAZE
BIG RAPIDS     SUNNY     62  58  86 CALM      30.12R
COLDWATER      SUNNY     66  60  80 CALM      30.13R
FREMONT        FAIR      64  60  87 S5        30.11S FOG
HOLLAND        SUNNY     66  59  78 SE3       30.12R HAZE
GRAND RAPIDS   SUNNY     64  60  87 CALM      30.12R FOG
IONIA          FAIR      66  62  86 CALM      30.12R
KALAMAZOO      SUNNY     67  62  84 CALM      30.12R
LUDINGTON      SUNNY     66  59  79 CALM      30.10R
MARSHALL       SUNNY     66  60  80 CALM      30.12R
MOUNT PLEASANT SUNNY     66  64  92 CALM      30.11R
MUSKEGON       SUNNY     67  59  75 CALM      30.11R HAZE
SOUTH HAVEN    SUNNY     66  60  80 CALM      30.10S HAZE
$$
MIZ016>042-051400-
NORTHERN LOWER MICHIGAN

CITY           SKY/WX    TMP DP  RH WIND       PRES   REMARKS
ALPENA         SUNNY     62  57  83 CALM      30.12R
BEAVER ISLAND  MOSUNNY   67  60  76 S5        30.07S
BELLAIRE       MOSUNNY   62  57  82 CALM      30.10R
CADILLAC       SUNNY     64  60  88 SW3       30.12R
CHARLEVOIX     MOSUNNY   63  59  88 SE3       30.11S
FRANKFORT      SUNNY     71  55  57 SE3       30.08F
GAYLORD        SUNNY     63  59  87 W5        30.12R
GRAYLING       SUNNY     59  56  88 CALM      30.13R
HARBOR SPRINGS SUNNY     63  57  80 CALM      30.10R
HOUGHTON LAKE  SUNNY     64  59  83 CALM      30.13R
MANISTEE       SUNNY     63  57  82 SE3       30.10F
OSCODA         SUNNY     63  57  80 CALM      30.10R
PELLSTON       SUNNY     60  56  86 CALM      30.10R
ROGERS CITY    SUNNY     65  58  78 SW6       30.11R
TRAVERSE CITY  PTSUNNY   68  60  75 VRB3      30.07F
$$
MIZ007>008-015-051400-
EASTERN UPPER MICHIGAN

CITY           SKY/WX    TMP DP  RH WIND       PRES   REMARKS
KINROSS        SUNNY     66  57  72 S5        30.08S
MACKINAC ISLAN SUNNY     63  61  92 CALM      30.08S
NEWBERRY       MOSUNNY   64  59  85 SW10      30.06S
S. S. MARIE    SUNNY     59  55  87 E3        30.08R
$$
MIZ004>006-011>014-085-051400-
CENTRAL UPPER MICHIGAN

CITY           SKY/WX    TMP DP  RH WIND       PRES   REMARKS
MANISTIQUE     MOSUNNY   61  57  88 S8        30.05F
ESCANABA       MOSUNNY   66  63  88 S5        30.03S
MENOMINEE      SUNNY     68  61  77 SW6       30.03S
SAWYER-GWINN   SUNNY     61  57  88 S6        30.03F FOG
$$
MIZ001>003-009>011-084-051400-
WESTERN UPPER MICHIGAN

CITY           SKY/WX    TMP DP  RH WIND       PRES   REMARKS
IRON MOUNTAIN  SUNNY     65  61  87 SE3       30.02S FOG
HOUGHTON       MOSUNNY   65  61  87 S6        29.94F FOG
COPPER HARBOR    N/A     68  61  78 W12G23    29.92F
IRONWOOD       MOSUNNY   70  64  83 S9        29.94S
$$

ABBREVIATIONS USED IN REMARKS
   TC - TEMPERATURE IN CELSIUS
  WCI - WIND CHILL INDEX
   HX - HEAT INDEX
  VSB - VISIBILITY




USA.gov is the U.S. government's official web portal to all federal, state and local government web resources and services.